TimeEDT,TemperatureF,Dew PointF,Humidity,Sea Level PressureIn,VisibilityMPH,Wind Direction,Wind SpeedMPH,Gust SpeedMPH,PrecipitationIn,Events,Conditions,WindDirDegrees,DateUTC
12:53 AM,72.0,68.0,87,29.86,10.0,South,4.6,-,N/A,,Clear,180,2013-06-27 04:53:00
1:53 AM,70.0,68.0,93,29.85,8.0,East,4.6,-,N/A,,Clear,100,2013-06-27 05:53:00
2:53 AM,70.0,68.0,93,29.84,9.0,South,3.5,-,N/A,,Clear,180,2013-06-27 06:53:00
3:53 AM,69.1,66.9,93,29.82,8.0,East,5.8,-,N/A,,Clear,90,2013-06-27 07:53:00
4:53 AM,68.0,66.0,93,29.81,8.0,ENE,3.5,-,N/A,,Clear,70,2013-06-27 08:53:00
5:53 AM,68.0,66.0,93,29.83,7.0,Calm,Calm,-,N/A,,Clear,0,2013-06-27 09:53:00
6:53 AM,70.0,66.9,90,29.82,7.0,Calm,Calm,-,N/A,,Clear,0,2013-06-27 10:53:00
7:53 AM,72.0,68.0,87,29.81,6.0,NW,3.5,-,N/A,,Clear,320,2013-06-27 11:53:00
8:53 AM,75.9,71.1,85,29.80,7.0,Calm,Calm,-,N/A,,Clear,0,2013-06-27 12:53:00
9:53 AM,79.0,69.1,72,29.78,9.0,SSE,3.5,-,N/A,,Clear,150,2013-06-27 13:53:00
10:50 AM,80.6,69.8,70,29.74,10.0,SE,8.1,-,N/A,,Mostly Cloudy,130,2013-06-27 14:50:00
10:53 AM,81.0,68.0,65,29.75,10.0,SSE,8.1,-,N/A,,Mostly Cloudy,150,2013-06-27 14:53:00
11:14 AM,82.4,66.2,58,29.73,10.0,SE,9.2,-,N/A,,Scattered Clouds,130,2013-06-27 15:14:00
11:53 AM,82.9,68.0,60,29.72,10.0,ESE,11.5,18.4,N/A,,Mostly Cloudy,120,2013-06-27 15:53:00
12:53 PM,84.0,69.1,61,29.70,10.0,South,9.2,17.3,N/A,,Overcast,170,2013-06-27 16:53:00
1:53 PM,84.9,70.0,61,29.66,10.0,SSE,13.8,21.9,N/A,,Mostly Cloudy,160,2013-06-27 17:53:00
2:49 PM,78.8,69.8,74,29.67,10.0,South,17.3,25.3,N/A,Thunderstorm,Overcast,190,2013-06-27 18:49:00
2:53 PM,79.0,70.0,74,29.68,10.0,SSW,13.8,25.3,N/A,Thunderstorm,Overcast,200,2013-06-27 18:53:00
3:16 PM,73.4,69.8,88,29.69,10.0,West,13.8,18.4,0.00,,Overcast,260,2013-06-27 19:16:00
3:23 PM,73.4,69.8,88,29.69,10.0,West,13.8,-,0.00,Rain-Thunderstorm,Light Rain,260,2013-06-27 19:23:00
3:38 PM,71.6,69.8,94,29.68,4.0,West,6.9,-,0.03,Rain,Rain,260,2013-06-27 19:38:00
3:43 PM,71.6,69.8,94,29.68,2.0,West,10.4,-,0.07,Rain,Heavy Rain,280,2013-06-27 19:43:00
3:50 PM,71.6,69.8,94,29.69,1.2,WSW,8.1,-,0.14,Rain,Heavy Rain,240,2013-06-27 19:50:00
3:51 PM,71.1,70.0,96,29.70,1.0,WSW,8.1,-,0.17,Rain,Heavy Rain,240,2013-06-27 19:51:00
3:53 PM,69.8,69.8,100,29.69,0.8,SW,6.9,-,0.02,Rain,Heavy Rain,230,2013-06-27 19:53:00
4:00 PM,69.8,69.8,100,29.67,0.8,West,4.6,-,0.10,Rain-Thunderstorm,Heavy Thunderstorms and Rain,280,2013-06-27 20:00:00
4:03 PM,69.8,69.8,100,29.67,1.0,West,4.6,-,0.11,Rain-Thunderstorm,Heavy Thunderstorms and Rain,280,2013-06-27 20:03:00
4:12 PM,71.6,69.8,94,29.66,2.5,Calm,Calm,-,0.13,Rain,Rain,0,2013-06-27 20:12:00
4:19 PM,71.6,69.8,94,29.66,5.0,WSW,4.6,-,0.13,Rain,Light Rain,250,2013-06-27 20:19:00
4:53 PM,73.9,71.1,91,29.67,10.0,SW,5.8,-,0.13,,Partly Cloudy,230,2013-06-27 20:53:00
5:42 PM,78.8,71.6,78,29.63,10.0,WSW,9.2,-,N/A,,Mostly Cloudy,240,2013-06-27 21:42:00
5:50 PM,77.0,71.6,83,29.63,10.0,WSW,5.8,-,N/A,,Scattered Clouds,250,2013-06-27 21:50:00
5:53 PM,77.0,71.1,82,29.65,10.0,West,8.1,-,N/A,,Scattered Clouds,260,2013-06-27 21:53:00
6:53 PM,77.0,68.0,74,29.65,10.0,West,8.1,-,N/A,,Overcast,260,2013-06-27 22:53:00
7:53 PM,77.0,68.0,74,29.66,10.0,WSW,4.6,-,N/A,,Overcast,250,2013-06-27 23:53:00
8:53 PM,75.9,68.0,76,29.65,10.0,WSW,4.6,-,N/A,,Mostly Cloudy,250,2013-06-28 00:53:00
9:53 PM,75.9,66.9,74,29.66,10.0,SW,5.8,-,N/A,,Mostly Cloudy,230,2013-06-28 01:53:00
10:53 PM,75.0,66.9,76,29.65,10.0,SSW,6.9,-,N/A,,Mostly Cloudy,200,2013-06-28 02:53:00
11:36 PM,73.4,66.2,78,29.64,10.0,South,6.9,-,N/A,,Mostly Cloudy,190,2013-06-28 03:36:00
11:51 PM,73.4,66.2,78,29.64,10.0,SSW,4.6,-,N/A,,Scattered Clouds,200,2013-06-28 03:51:00
11:53 PM,73.0,66.0,79,29.64,10.0,SSW,5.8,-,N/A,,Scattered Clouds,200,2013-06-28 03:53:00